Regional Weather Roundup
Issued by NWS

Home | Current Version | Previous Version | Graphics & Text | Print | Product List | Glossary On
Versions: 1 2 3 4 5 6 7 8 9 10 11 12 13 14 15 16 17 18 19 20 21 22 23 24 25 26 27 28 29 30 31 32 33 34 35 36 37 38 39 40 41 42 43 44 45 46 47 48 49 50
000
ASUS43 KOAX 250202
RWRNE

WEATHER ROUNDUP FOR NEBRASKA
NATIONAL WEATHER SERVICE OMAHA NE
900 PM CDT SUN MAY 24 2015

NOTES: SATELLITE DATA IS BEING USED TO AUGMENT CLOUD COVER ABOVE
       12000 FEET.
       "FAIR" INDICATES FEW OR NO CLOUDS BELOW 12,000 FEET WITH NO
       SIGNIFICANT WEATHER AND/OR OBSTRUCTIONS TO VISIBILITY.

  * THESE STATIONS DO NOT REPORT WEATHER SUCH AS RAIN...SNOW OR FOG.

NEZ001>004-019>022-054>056-250300-
NEBRASKA PANHANDLE

CITY           SKY/WX    TMP DP  RH WIND       PRES   REMARKS
SCOTTSBLUFF    CLOUDY    55  47  74 NW12      29.79F
ALLIANCE       CLOUDY    59  50  72 VRB5      29.78R THUNDER
CHADRON        LGT RAIN  57  54  89 N13       29.81R FOG
SIDNEY         CLOUDY    52  47  83 SE3       29.81S
$$

NEZ057>060-069>072-079>082-250300-
SOUTHWEST NEBRASKA

CITY           SKY/WX    TMP DP  RH WIND       PRES   REMARKS
NORTH PLATTE   MOCLDY    61  56  83 SE12      29.78S
IMPERIAL         N/A     52  49  89 S8        29.84R
MCCOOK         MOCLDY    64  56  75 SE9       29.78R
$$

NEZ005>010-023>029-035>040-094-250300-
NORTH CENTRAL NEBRASKA

CITY           SKY/WX    TMP DP  RH WIND       PRES   REMARKS
VALENTINE      MOCLDY    60  56  86 E14       29.79F
AINSWORTH      CLOUDY    61  59  94 E7        29.80S
BROKEN BOW     CLOUDY    66  59  78 SE9       29.78S
ORD            CLOUDY    62  57  83 S6        29.77R
$$

NEZ041-046>049-061>064-073>077-083>087-250300-
SOUTH CENTRAL NEBRASKA

CITY           SKY/WX    TMP DP  RH WIND       PRES   REMARKS
GRAND ISLAND   CLOUDY    63  58  83 S3        29.78F
HASTINGS       CLOUDY    63  58  83 SE5       29.79R
KEARNEY *      CLOUDY    63  57  82 S3        29.80S
$$

NEZ011>018-030>034-042>045-250300-
NORTHEAST NEBRASKA

CITY           SKY/WX    TMP DP  RH WIND       PRES   REMARKS
NORFOLK        CLOUDY    63  60  90 NW5       29.77F
BLAIR          CLOUDY    65  61  89 CALM      29.77S
COLUMBUS *     CLOUDY    63  55  77 CALM      29.80S
TEKAMAH        CLOUDY    65  62  90 W5        29.75F
$$

NEZ050>053-065>068-078-088>093-250300-
SOUTHEAST NEBRASKA

CITY           SKY/WX    TMP DP  RH WIND       PRES   REMARKS
LINCOLN        CLOUDY    64  61  90 S3        29.77F
OMAHA EPPLEY   CLOUDY    69  61  75 SW7       29.76F
FALLS CITY     CLOUDY    65  61  87 S3        29.79R
$$

NEZ044-045-051>053-067-250300-
OMAHA AREA

CITY           SKY/WX    TMP DP  RH WIND       PRES   REMARKS
OMAHA EPPLEY   CLOUDY    69  61  75 SW7       29.76F
BLAIR          CLOUDY    65  61  89 CALM      29.77S
OFFUTT AFB     CLOUDY    68  61  79 SW6       29.77R
$$


USA.gov is the U.S. government's official web portal to all federal, state and local government web resources and services.